• Em Portugal
  • Lista de países
  • Para 7 dias
  • Temperatura da água
  • Mapas de satélite
  • Mapa do tempo
  • Widgets de tempo
  • user-avatar
    Iniciar Sessão

    Previsão horária em Bolshoy Polsvizh

    Hoje, 25 Setembro, Terça-feira

    Tempo Temperatura Precipitação Vento Pressão Humidade
    00:00 +5°C° 0 mm 5 m/s 741 mmHg 92%
    01:00 +5°C° 0 mm 5 m/s 741 mmHg 92%
    02:00 +5°C° 0 mm 4 m/s 742 mmHg 93%
    03:00 +3°C° 0 mm 5 m/s 743 mmHg 93%
    04:00 +3°C° 0 mm 5 m/s 743 mmHg 94%
    05:00 +2°C° 0 mm 5 m/s 744 mmHg 94%
    06:00 +3°C° 0 mm 5 m/s 744 mmHg 92%
    07:00 +3°C° 0 mm 6 m/s 745 mmHg 89%
    08:00 +3°C° 0 mm 6 m/s 746 mmHg 87%
    09:00 +4°C° 0 mm 6 m/s 746 mmHg 82%
    10:00 +5°C° 0 mm 6 m/s 747 mmHg 78%
    11:00 +7°C° 0 mm 6 m/s 747 mmHg 74%
    12:00 +7°C° 0.1 mm 6 m/s 748 mmHg 68%
    13:00 +8°C° 0.1 mm 6 m/s 748 mmHg 62%
    14:00 +9°C° 0 mm 6 m/s 749 mmHg 56%
    15:00 +8°C° 0 mm 5 m/s 749 mmHg 58%
    16:00 +8°C° 0 mm 5 m/s 750 mmHg 59%
    17:00 +7°C° 0 mm 4 m/s 750 mmHg 61%
    18:00 +6°C° 0 mm 4 m/s 751 mmHg 62%
    19:00 +5°C° 0 mm 4 m/s 752 mmHg 64%
    20:00 +4°C° 0 mm 4 m/s 752 mmHg 65%
    21:00 +4°C° 0 mm 4 m/s 753 mmHg 67%
    22:00 +3°C° 0 mm 4 m/s 754 mmHg 68%
    23:00 +3°C° 0 mm 4 m/s 754 mmHg 70%

    Amanhã, 26 Setembro, Quarta-feira

    Tempo Temperatura Precipitação Vento Pressão Humidade
    00:00 +3°C° 0 mm 3 m/s 755 mmHg 75%
    01:00 +2°C° 0 mm 3 m/s 755 mmHg 79%
    02:00 +2°C° 0 mm 3 m/s 756 mmHg 83%
    03:00 +2°C° 0 mm 3 m/s 756 mmHg 85%
    04:00 +2°C° 0 mm 3 m/s 756 mmHg 86%
    05:00 +2°C° 0 mm 3 m/s 756 mmHg 88%
    06:00 +1°C° 0 mm 4 m/s 756 mmHg 83%
    07:00 +3°C° 0 mm 4 m/s 756 mmHg 77%
    08:00 +4°C° 0 mm 4 m/s 756 mmHg 72%
    09:00 +6°C° 0 mm 5 m/s 756 mmHg 67%
    10:00 +8°C° 0 mm 5 m/s 756 mmHg 62%
    11:00 +10°C° 0 mm 6 m/s 756 mmHg 57%
    12:00 +10°C° 0 mm 6 m/s 755 mmHg 57%
    13:00 +10°C° 0 mm 6 m/s 755 mmHg 57%
    14:00 +11°C° 0 mm 7 m/s 754 mmHg 56%
    15:00 +10°C° 0.1 mm 7 m/s 753 mmHg 61%
    16:00 +9°C° 0.1 mm 7 m/s 752 mmHg 66%
    17:00 +8°C° 0.1 mm 7 m/s 752 mmHg 71%
    18:00 +6°C° 0.6 mm 7 m/s 751 mmHg 75%
    19:00 +6°C° 0.6 mm 8 m/s 750 mmHg 79%
    20:00 +5°C° 0.6 mm 8 m/s 749 mmHg 84%
    21:00 +5°C° 0.4 mm 8 m/s 748 mmHg 85%
    22:00 +5°C° 0.4 mm 9 m/s 747 mmHg 86%
    23:00 +5°C° 0.4 mm 9 m/s 746 mmHg 87%

    Depois de amanhã, 27 Setembro, Quinta-feira

    Tempo Temperatura Precipitação Vento Pressão Humidade
    00:00 +5°C° 0.3 mm 9 m/s 745 mmHg 87%
    01:00 +5°C° 0.3 mm 9 m/s 745 mmHg 88%
    02:00 +6°C° 0.3 mm 9 m/s 744 mmHg 88%
    03:00 +6°C° 0.2 mm 9 m/s 743 mmHg 89%
    04:00 +7°C° 0.2 mm 9 m/s 743 mmHg 89%
    05:00 +7°C° 0.2 mm 9 m/s 742 mmHg 89%
    06:00 +9°C° 0.4 mm 7 m/s 743 mmHg 89%
    07:00 +9°C° 0.4 mm 6 m/s 743 mmHg 89%
    08:00 +11°C° 0.4 mm 4 m/s 743 mmHg 89%
    09:00 +12°C° 0.1 mm 5 m/s 744 mmHg 81%
    10:00 +13°C° 0.1 mm 5 m/s 744 mmHg 72%
    11:00 +14°C° 0.1 mm 5 m/s 744 mmHg 64%
    12:00 +14°C° 0.1 mm 6 m/s 745 mmHg 62%
    13:00 +14°C° 0.1 mm 6 m/s 745 mmHg 60%
    14:00 +14°C° 0.1 mm 6 m/s 745 mmHg 59%
    15:00 +14°C° 0 mm 5 m/s 745 mmHg 61%
    16:00 +13°C° 0 mm 5 m/s 745 mmHg 64%
    17:00 +12°C° 0 mm 4 m/s 745 mmHg 66%
    18:00 +11°C° 0 mm 4 m/s 746 mmHg 70%
    19:00 +10°C° 0 mm 4 m/s 746 mmHg 73%
    20:00 +8°C° 0 mm 4 m/s 746 mmHg 77%
    21:00 +10°C° 0 mm 4 m/s 745 mmHg 78%
    22:00 +9°C° 0 mm 5 m/s 745 mmHg 79%
    23:00 +9°C° 0 mm 5 m/s 744 mmHg 80%

    28 Setembro, Sexta-feira

    Tempo Temperatura Precipitação Vento Pressão Humidade
    00:00 +10°C° 0.1 mm 6 m/s 743 mmHg 81%
    01:00 +11°C° 0.1 mm 7 m/s 742 mmHg 82%
    02:00 +13°C° 0.1 mm 8 m/s 741 mmHg 84%
    03:00 +13°C° 0.1 mm 8 m/s 741 mmHg 83%
    04:00 +13°C° 0.1 mm 8 m/s 740 mmHg 83%
    05:00 +12°C° 0.1 mm 8 m/s 739 mmHg 83%
    06:00 +13°C° 0.5 mm 8 m/s 739 mmHg 84%
    07:00 +13°C° 0.5 mm 8 m/s 739 mmHg 85%
    08:00 +13°C° 0.5 mm 8 m/s 739 mmHg 85%
    09:00 +12°C° 0.4 mm 8 m/s 740 mmHg 82%
    10:00 +12°C° 0.4 mm 7 m/s 740 mmHg 78%
    11:00 +12°C° 0.4 mm 7 m/s 741 mmHg 74%
    12:00 +12°C° 0.1 mm 7 m/s 742 mmHg 70%
    13:00 +13°C° 0.1 mm 6 m/s 742 mmHg 66%
    14:00 +13°C° 0.1 mm 6 m/s 743 mmHg 62%
    15:00 +12°C° 0 mm 5 m/s 743 mmHg 65%
    16:00 +12°C° 0 mm 3 m/s 744 mmHg 68%
    17:00 +12°C° 0 mm 2 m/s 744 mmHg 71%
    18:00 +10°C° 0 mm 2 m/s 745 mmHg 74%
    19:00 +8°C° 0 mm 2 m/s 745 mmHg 78%
    20:00 +8°C° 0 mm 1 m/s 746 mmHg 81%
    21:00 +8°C° 0 mm 1 m/s 746 mmHg 83%
    22:00 +7°C° 0 mm 1 m/s 746 mmHg 85%
    23:00 +7°C° 0 mm 1 m/s 747 mmHg 87%

    29 Setembro, Sábado

    Tempo Temperatura Precipitação Vento Pressão Humidade
    00:00 +6°C° 0 mm 2 m/s 747 mmHg 89%
    01:00 +5°C° 0 mm 2 m/s 748 mmHg 91%
    02:00 +5°C° 0 mm 2 m/s 748 mmHg 93%
    03:00 +4°C° 0 mm 2 m/s 749 mmHg 94%
    04:00 +4°C° 0 mm 2 m/s 749 mmHg 94%
    05:00 +3°C° 0 mm 2 m/s 750 mmHg 95%
    06:00 +4°C° 0 mm 2 m/s 750 mmHg 90%
    07:00 +5°C° 0 mm 2 m/s 751 mmHg 85%
    08:00 +5°C° 0 mm 2 m/s 751 mmHg 80%
    09:00 +7°C° 0 mm 3 m/s 752 mmHg 70%
    10:00 +8°C° 0 mm 3 m/s 753 mmHg 60%
    11:00 +9°C° 0 mm 3 m/s 753 mmHg 51%
    12:00 +10°C° 0 mm 3 m/s 754 mmHg 48%
    13:00 +10°C° 0 mm 3 m/s 754 mmHg 44%
    14:00 +11°C° 0 mm 3 m/s 754 mmHg 41%
    15:00 +10°C° 0 mm 2 m/s 754 mmHg 46%
    16:00 +9°C° 0 mm 2 m/s 754 mmHg 50%
    17:00 +9°C° 0 mm 1 m/s 754 mmHg 54%
    18:00 +8°C° 0 mm 1 m/s 755 mmHg 56%
    19:00 +6°C° 0 mm 1 m/s 755 mmHg 58%
    20:00 +5°C° 0 mm 1 m/s 756 mmHg 60%
    21:00 +5°C° 0 mm 1 m/s 756 mmHg 61%
    22:00 +3°C° 0 mm 0 m/s 756 mmHg 62%
    23:00 +3°C° 0 mm 0 m/s 757 mmHg 63%

    30 Setembro, Domingo

    Tempo Temperatura Precipitação Vento Pressão Humidade
    00:00 +4°C° 0 mm 1 m/s 757 mmHg 64%
    01:00 +4°C° 0 mm 1 m/s 757 mmHg 65%
    02:00 +3°C° 0 mm 1 m/s 757 mmHg 66%
    03:00 +3°C° 0 mm 1 m/s 757 mmHg 67%
    04:00 +2°C° 0 mm 2 m/s 757 mmHg 68%
    05:00 +2°C° 0 mm 2 m/s 757 mmHg 70%
    06:00 +3°C° 0 mm 2 m/s 757 mmHg 67%
    07:00 +4°C° 0 mm 2 m/s 757 mmHg 65%
    08:00 +3°C° 0 mm 3 m/s 757 mmHg 63%
    09:00 +5°C° 0 mm 3 m/s 757 mmHg 59%
    10:00 +8°C° 0 mm 3 m/s 756 mmHg 54%
    11:00 +10°C° 0 mm 4 m/s 756 mmHg 50%
    12:00 +10°C° 0 mm 4 m/s 756 mmHg 49%
    13:00 +11°C° 0 mm 4 m/s 755 mmHg 49%
    14:00 +12°C° 0 mm 4 m/s 754 mmHg 49%
    15:00 +11°C° 0 mm 4 m/s 754 mmHg 55%
    16:00 +10°C° 0 mm 3 m/s 754 mmHg 61%
    17:00 +9°C° 0 mm 2 m/s 753 mmHg 67%
    18:00 +8°C° 0 mm 2 m/s 753 mmHg 73%
    19:00 +7°C° 0 mm 3 m/s 753 mmHg 79%
    20:00 +5°C° 0 mm 3 m/s 753 mmHg 84%
    21:00 +5°C° 0 mm 3 m/s 753 mmHg 86%
    22:00 +5°C° 0 mm 3 m/s 753 mmHg 87%
    23:00 +5°C° 0 mm 3 m/s 753 mmHg 88%
    Mostrar mais